Location: Marsån
(66.4167°N, 22.2833°E)
Time: 08:45:53
(UTC+00:00)

Cosmos 968 Rocket - Pass Details

Date: 24 February 2024
Orbit: 739 x 768 km, 74.0° (Epoch: 20 April)

Event Time Altitude Azimuth Distance (km) Brightness Sun altitude
Rises 19:22:51 0° 228° (SW) 3,237 6.9 -23.7°
Reaches altitude 10° 19:25:14 10° 230° (SW) 2,310 6.1 -23.9°
Maximum altitude 19:30:30 77° 317° (NW) 793 3.6 -24.3°
Drops below altitude 10° 19:35:44 10° 44° (NE) 2,304 5.9 -24.8°
Sets 19:38:07 0° 46° (NE) 3,227 6.7 -24.9°
